Theta_e
307 303 303 305 306 307 306 305 306 306 306 306 306 307 304 304 304 303 303 302 303 303 303 303 303 304 304 302 304 306 308 308 309 310 311 310 310 308 317 326 327 328 326 324
302 305 305 306 307 306 307 307 307 306 306 306 306 306 304 304 303 303 302 302 302 302 302 302 302 303 303 301 300 302 307 309 310 311 312 310 310 310 311 324 325 328 326 326
302 305 306 307 306 306 306 307 307 305 306 306 306 303 304 303 303 303 302 302 302 302 302 301 300 302 299 298 301 302 307 312 312 315 313 311 309 311 311 324 325 327 327 327
304 305 306 306 306 307 308 306 307 308 306 308 304 300 305 304 302 302 301 300 300 302 301 299 300 300 298 297 297 302 308 312 314 313 312 310 309 311 312 323 325 327 327 327
305 306 307 308 307 307 307 306 307 307 307 304 306 302 304 303 302 301 301 300 299 301 299 299 300 298 297 298 300 302 308 312 313 313 312 310 311 312 318 321 327 327 326 325
304 306 306 306 306 306 306 307 305 305 304 303 307 302 299 299 300 302 300 299 299 300 299 300 300 300 298 298 300 300 306 311 312 312 312 312 313 317 321 322 322 324 322 323
303 304 304 306 306 306 307 305 305 304 304 306 305 302 301 302 302 301 300 298 298 300 300 300 299 299 299 297 297 298 301 307 312 313 313 314 316 316 317 316 317 321 320 319
302 302 304 305 306 306 307 306 304 297 305 306 303 305 305 301 302 301 299 298 298 300 300 300 298 298 298 299 299 299 301 302 309 311 313 314 314 312 311 308 314 314 314 315
303 305 304 305 306 305 306 307 305 305 294 303 302 305 303 301 300 300 298 297 297 300 299 297 298 299 298 298 298 300 301 302 302 304 307 308 309 310 310 308 310 310 310 311
304 303 303 304 305 305 306 305 304 304 299 303 303 305 304 301 301 299 297 297 297 300 298 296 297 297 300 298 298 300 301 300 301 302 303 303 305 305 306 307 307 307 307 307
303 302 303 303 304 304 305 305 306 305 305 304 303 302 300 300 299 298 297 297 296 299 298 297 295 294 296 299 299 298 298 299 300 301 301 300 300 301 301 301 302 302 303 303
302 302 302 303 303 303 304 304 305 303 305 304 305 302 301 299 299 299 297 296 296 297 299 299 297 295 294 294 295 297 297 296 296 297 297 297 297 298 298 296 296 296 296 296
302 298 297 299 301 302 303 304 304 303 303 305 304 300 299 300 299 299 297 296 296 295 297 299 300 298 297 296 295 295 296 297 298 299 299 299 299 299 299 297 298 300 297 296
301 301 300 300 303 302 303 303 303 304 304 303 303 301 299 299 298 298 297 296 295 295 294 295 299 297 297 296 295 295 296 297 298 300 301 302 303 304 302 303 302 300 298 296
299 294 301 301 301 301 303 303 303 304 303 301 301 301 301 299 298 299 298 297 295 295 294 294 294 295 295 295 295 295 296 297 299 299 300 301 301 301 301 300 302 301 298 295
297 296 296 294 297 296 299 300 302 303 303 300 300 300 299 300 299 298 298 297 295 294 294 294 294 294 295 295 296 297 299 298 298 299 298 298 299 299 298 298 298 298 295 294
298 296 296 293 294 294 292 296 299 303 302 303 302 301 297 296 298 298 298 298 296 295 294 294 295 295 295 296 297 298 298 298 298 298 298 297 296 295 294 293 293 293 292 292
295 295 291 290 291 291 297 297 297 300 302 301 299 298 299 299 299 299 299 299 297 295 294 295 295 296 297 297 298 298 297 297 296 295 295 295 293 292 291 291 290 290 290 289
295 296 290 291 286 294 297 296 296 297 299 300 301 298 298 298 298 298 298 299 299 296 295 296 297 297 297 297 297 296 293 291 290 290 290 289 289 289 289 289 289 289 288 288
295 295 291 287 290 293 298 295 296 296 298 297 301 298 297 297 297 294 298 299 298 296 295 297 297 297 295 294 292 292 293 292 291 290 289 288 288 289 289 289 289 288 288 288
290 288 292 285 289 292 294 295 297 299 302 297 300 298 297 298 298 299 298 298 298 296 296 296 297 297 292 292 293 293 293 292 292 291 290 289 288 288 288 288 288 288 288 288
294 293 289 284 286 294 296 296 296 298 299 298 299 298 298 299 298 297 297 297 297 296 296 297 296 293 293 293 293 293 293 293 292 292 292 291 291 289 287 287 287 288 288 288
296 293 293 294 295 296 297 298 298 299 299 297 299 298 299 298 298 297 297 297 297 297 297 295 292 293 293 293 293 293 293 293 293 292 292 292 291 291 290 288 287 286 286 286
294 295 294 295 295 295 297 299 299 299 299 299 299 299 299 298 298 297 297 297 297 297 295 293 293 293 293 293 293 293 293 293 292 292 292 292 291 291 290 288 286 286 285 284
294 294 294 293 294 295 297 298 299 299 299 300 299 299 300 298 299 298 298 298 298 296 293 293 293 294 293 293 293 293 293 293 292 292 292 292 291 290 289 287 285 285 284 284
293 293 297 296 297 298 298 299 299 298 299 299 300 299 300 298 298 298 298 298 295 294 293 293 294 294 295 295 294 294 294 293 293 292 291 291 291 290 289 285 284 284 283 283
Wind_Speed
5 6 4 5 2 2 2 3 3 1 2 2 2 1 4 6 18 18 23 28 30 33 35 42 46 43 47 46 39 34 34 31 30 30 29 32 34 37 34 39 34 36 36 35
6 3 3 1 2 5 4 3 1 2 1 2 2 5 3 5 8 16 21 27 31 34 36 45 47 46 48 47 44 37 31 33 31 31 30 31 30 32 34 29 43 39 38 37
5 3 3 2 3 5 3 3 2 2 4 3 2 4 5 2 8 16 24 27 31 34 38 42 45 46 45 47 44 38 30 27 27 25 23 25 27 29 29 27 29 34 36 38
5 1 3 4 3 1 3 2 2 1 3 2 4 4 4 1 6 10 23 28 30 31 34 40 42 45 43 46 39 30 24 23 27 17 16 18 23 24 23 22 25 26 35 41
1 3 2 2 3 1 3 2 2 1 2 3 1 2 4 3 5 6 19 23 25 29 31 36 40 42 44 44 37 31 28 23 16 7 6 10 16 12 13 17 25 28 33 29
2 1 2 2 2 3 4 3 4 3 2 2 3 4 4 0 3 4 13 19 23 27 32 33 37 42 44 41 38 35 31 30 17 14 8 7 2 6 11 14 18 19 14 13
5 2 1 2 4 3 2 4 2 4 3 4 2 2 4 4 3 4 7 15 21 25 30 32 36 43 48 48 49 45 39 33 21 19 21 23 19 15 18 21 25 22 19 17
5 4 6 4 3 5 4 4 4 6 3 3 3 4 2 5 7 7 9 14 19 24 27 29 30 38 43 51 51 51 45 37 31 30 27 21 25 30 29 28 31 34 26 22
4 1 1 2 1 1 4 3 3 5 2 2 3 1 2 4 2 7 10 16 19 19 23 26 28 34 41 48 51 49 56 51 49 45 43 41 40 39 42 37 41 41 40 36
5 3 1 2 1 2 3 2 3 1 2 3 4 4 4 6 3 4 6 12 14 13 17 23 27 30 35 43 49 52 45 50 52 58 58 54 48 45 41 40 39 38 35 32
4 3 1 2 6 7 3 3 3 2 3 4 1 5 4 7 6 7 6 8 9 9 13 18 22 27 31 36 42 49 52 52 51 50 51 50 47 44 40 37 34 32 28 27
3 4 4 5 2 2 2 5 6 3 5 2 2 5 5 7 11 13 10 8 6 6 9 13 18 24 29 32 34 39 43 44 46 45 46 46 40 39 39 37 35 32 30 26
4 1 2 5 2 1 5 5 4 3 2 5 5 4 5 11 11 12 13 11 6 6 7 8 13 19 23 26 29 32 34 37 39 38 39 38 38 37 36 34 31 29 26 24
4 2 5 6 2 3 5 6 7 5 3 4 5 5 6 9 8 14 14 12 9 6 7 8 11 14 17 21 23 25 27 29 29 29 29 29 28 27 27 26 21 19 18 18
3 5 3 3 2 2 3 4 9 14 6 7 4 10 14 15 12 22 19 16 12 9 8 9 11 13 15 16 19 21 22 22 22 23 23 23 22 22 21 20 17 14 14 14
2 2 2 3 3 3 5 7 9 15 13 8 3 6 4 20 22 21 23 20 16 13 10 10 10 11 13 15 15 15 16 18 17 17 18 17 16 15 15 13 12 10 10 11
6 5 3 5 2 2 6 16 19 8 8 14 12 9 11 7 20 27 27 24 21 17 15 13 12 12 10 11 11 10 11 11 11 13 15 15 15 15 15 14 12 10 10 10
5 5 2 3 2 3 6 2 4 19 7 14 3 10 21 29 32 29 27 27 24 20 18 15 13 11 10 8 7 7 8 10 12 13 13 13 15 16 16 15 14 13 12 11
5 4 2 4 4 7 5 6 8 9 11 21 19 13 18 23 23 19 25 23 24 22 19 16 13 10 6 4 4 6 8 10 10 11 12 12 12 12 13 13 13 13 12 12
3 2 4 3 4 7 4 3 8 8 7 12 30 23 26 30 10 5 31 26 24 22 21 18 13 7 6 7 7 7 9 11 12 14 15 15 15 14 14 14 14 14 13 13
3 0 7 4 4 8 7 8 11 5 5 2 32 35 37 16 11 22 34 29 26 25 23 18 13 11 9 9 8 7 9 9 13 15 17 17 18 18 18 17 16 15 14 14
8 9 4 3 2 11 14 9 8 3 1 8 27 36 36 20 18 30 36 33 30 27 23 18 16 14 12 10 7 6 8 10 12 14 17 20 20 20 20 19 18 16 15 15
5 8 6 11 9 5 30 7 21 2 2 17 29 38 41 28 30 37 38 34 31 27 23 23 19 16 12 8 6 4 7 10 12 14 15 16 19 20 21 21 21 19 17 16
5 8 3 3 8 16 20 24 15 11 2 14 26 41 39 32 35 38 37 34 30 27 28 24 21 16 10 7 4 3 6 8 11 13 15 17 19 21 22 23 22 20 18 16
7 14 8 5 8 5 19 28 30 15 14 13 22 36 38 33 37 38 38 34 32 32 28 23 18 15 11 5 2 2 5 7 10 13 16 19 21 22 23 23 21 19 16 12
12 8 9 8 13 15 8 22 31 29 22 19 26 37 36 33 37 38 37 36 36 32 28 24 19 14 9 6 2 2 5 8 10 13 16 18 19 21 23 21 19 18 15 9
Wind_Direction
27 76 149 153 130 135 167 127 134 220 265 297 253 260 131 71 51 37 19 13 7 359 353 352 351 348 344 346 339 332 324 318 311 297 274 251 243 233 234 236 232 231 230 236
27 111 184 199 92 98 70 123 153 308 346 23 311 281 144 73 66 46 23 13 6 357 355 352 351 354 350 345 339 333 331 319 309 291 278 253 240 230 235 236 235 231 230 236
128 144 142 107 61 99 48 148 167 198 330 261 340 295 165 174 60 31 22 16 8 3 354 346 350 355 349 349 342 337 332 325 308 297 272 258 230 227 224 233 239 239 233 236
85 145 124 105 90 92 156 135 104 16 52 216 89 269 237 350 11 21 17 15 8 2 355 354 354 357 353 356 356 347 347 322 319 288 269 251 223 225 228 231 241 250 237 239
190 125 120 118 137 29 144 119 107 70 70 50 194 74 252 19 354 353 10 11 9 6 359 356 2 3 5 8 6 14 16 5 344 318 274 229 207 222 234 239 236 224 239 241
111 58 51 103 83 70 125 97 53 47 69 11 217 132 278 293 227 348 4 12 14 10 9 7 16 22 22 21 22 29 37 47 48 48 65 122 171 228 236 215 191 183 165 172
358 345 29 141 96 25 88 85 6 353 2 228 132 40 261 143 110 83 8 17 21 17 16 16 21 30 32 30 31 34 44 54 59 70 84 91 100 121 132 129 134 120 124 113
150 287 178 173 206 177 182 175 163 206 201 270 319 243 250 142 109 87 53 38 33 25 28 28 29 38 41 42 44 47 52 57 70 79 90 104 111 110 106 95 98 96 96 91
136 274 47 108 71 149 180 195 157 107 29 44 214 80 254 145 118 72 49 41 37 32 35 32 40 48 50 50 46 51 55 65 71 78 86 92 97 96 94 93 90 92 91 93
206 89 260 161 116 261 193 162 83 3 134 262 269 252 219 190 174 85 53 49 43 38 38 42 43 48 57 61 59 59 61 64 61 68 72 74 81 80 76 73 75 78 80 86
151 108 163 84 204 182 172 209 213 127 166 171 252 255 198 165 167 144 108 69 53 48 48 46 49 53 58 65 67 67 63 60 59 64 63 65 70 71 70 68 69 69 73 73
172 119 170 197 253 256 251 211 182 156 201 217 142 269 144 152 163 143 137 108 80 77 70 58 59 61 62 64 69 75 79 77 76 71 69 71 71 69 70 65 65 63 63 61
163 238 59 343 342 305 219 193 195 124 82 198 148 245 175 149 158 156 150 128 124 112 105 85 74 66 66 66 67 71 74 79 81 76 75 75 73 70 67 65 62 55 54 63
135 179 194 196 173 126 203 195 183 165 158 179 223 161 190 184 179 169 164 145 148 143 123 100 91 75 68 65 65 67 68 70 72 74 74 72 70 70 66 63 65 67 58 46
145 201 213 227 192 241 240 207 191 209 192 185 215 194 196 189 187 183 171 156 160 162 148 120 99 88 82 74 67 62 63 62 60 59 56 54 53 49 44 47 46 42 40 41
156 238 95 299 294 260 268 240 219 226 235 266 209 237 207 180 183 174 176 168 173 172 162 137 119 106 97 90 79 68 54 46 43 43 43 40 39 36 34 34 28 24 22 22
158 142 136 257 353 3 304 223 214 200 203 210 212 204 153 152 174 183 183 178 179 177 168 157 144 130 115 104 91 75 53 33 23 16 10 8 9 6 7 11 11 11 9 8
148 139 106 207 22 277 240 111 202 215 221 210 141 159 176 177 186 189 189 179 178 179 173 163 152 142 128 110 85 52 27 10 7 9 13 14 11 9 6 2 1 1 355 351
185 135 147 159 208 297 262 199 174 176 250 211 204 170 163 161 165 193 192 188 181 178 174 165 158 149 135 109 70 53 47 37 30 31 28 24 19 12 5 360 356 351 348 347
186 62 134 114 186 219 248 181 155 135 281 204 190 167 152 147 168 209 187 183 180 176 177 170 165 155 129 111 91 71 60 48 37 31 27 23 19 14 8 4 359 354 347 340
132 20 193 196 231 286 237 174 158 123 243 237 184 169 161 172 190 186 177 177 180 177 176 174 167 158 140 115 91 74 66 56 43 32 25 17 11 6 1 355 349 342 336 331
164 170 178 110 151 259 180 138 179 202 337 193 174 169 166 170 164 166 170 172 174 174 177 171 165 153 143 128 105 74 58 50 41 33 24 18 13 6 0 354 346 336 327 318
212 187 182 186 202 221 181 194 208 180 153 174 172 172 173 163 161 165 165 170 172 176 171 161 160 158 150 130 110 65 41 36 31 24 15 9 7 4 359 352 344 336 329 319
236 188 209 130 227 227 219 215 207 208 227 191 191 184 180 169 166 167 165 170 172 173 166 163 164 159 154 156 123 46 15 12 9 8 4 2 359 355 353 350 344 338 332 327
182 156 178 268 272 292 237 226 222 224 215 192 192 188 182 176 171 171 169 170 169 166 166 165 164 161 166 160 172 340 347 348 350 350 353 356 355 351 350 347 343 338 334 332
190 172 185 217 190 194 232 223 218 216 211 200 189 184 184 183 174 174 169 168 164 168 166 166 168 172 168 164 139 356 339 339 340 343 349 349 346 347 345 345 341 337 334 324